When you browse on this site, cookies collect data to enhance your experience and personalize the content and advertising you see.
Visit our Privacy Policy to learn more. By continuing to use the site, you agree to this use of cookies and data.
  • Em Portugal
  • Lista de países
  • Para 7 dias
  • Temperatura da água
  • Mapa do tempo
  • Widgets de tempo
  • user-avatar
    Iniciar Sessão

    Previsão horária em Sinemorec

    Hoje, 4 Junho, Quinta-feira

    Tempo Temperatura Precipitação Vento Pressão Humidade
    00:00 +12°C° 0.1 mm 3 m/s 754 mmHg 90%
    01:00 +12°C° 0.1 mm 3 m/s 754 mmHg 90%
    02:00 +12°C° 0.1 mm 2 m/s 754 mmHg 89%
    03:00 +12°C° 0 mm 2 m/s 754 mmHg 90%
    04:00 +12°C° 0 mm 2 m/s 754 mmHg 90%
    05:00 +12°C° 0 mm 2 m/s 754 mmHg 90%
    06:00 +14°C° 0 mm 2 m/s 755 mmHg 85%
    07:00 +16°C° 0 mm 2 m/s 755 mmHg 79%
    08:00 +19°C° 0 mm 2 m/s 755 mmHg 73%
    09:00 +20°C° 0 mm 2 m/s 755 mmHg 65%
    10:00 +23°C° 0 mm 2 m/s 755 mmHg 57%
    11:00 +24°C° 0 mm 3 m/s 756 mmHg 50%
    12:00 +25°C° 0 mm 3 m/s 756 mmHg 49%
    13:00 +26°C° 0 mm 3 m/s 756 mmHg 48%
    14:00 +26°C° 0 mm 3 m/s 756 mmHg 47%
    15:00 +26°C° 0 mm 4 m/s 756 mmHg 51%
    16:00 +26°C° 0 mm 4 m/s 755 mmHg 55%
    17:00 +25°C° 0 mm 4 m/s 755 mmHg 59%
    18:00 +23°C° 0 mm 4 m/s 756 mmHg 64%
    19:00 +21°C° 0 mm 4 m/s 756 mmHg 69%
    20:00 +19°C° 0 mm 5 m/s 756 mmHg 75%
    21:00 +19°C° 0 mm 5 m/s 756 mmHg 73%
    22:00 +19°C° 0 mm 4 m/s 756 mmHg 71%
    23:00 +19°C° 0 mm 4 m/s 756 mmHg 69%

    Amanhã, 5 Junho, Sexta-feira

    Tempo Temperatura Precipitação Vento Pressão Humidade
    00:00 +19°C° 0 mm 4 m/s 756 mmHg 69%
    01:00 +18°C° 0 mm 4 m/s 756 mmHg 68%
    02:00 +17°C° 0 mm 5 m/s 756 mmHg 67%
    03:00 +17°C° 0 mm 5 m/s 756 mmHg 71%
    04:00 +16°C° 0 mm 5 m/s 756 mmHg 74%
    05:00 +16°C° 0 mm 5 m/s 756 mmHg 78%
    06:00 +19°C° 0 mm 5 m/s 756 mmHg 73%
    07:00 +20°C° 0 mm 5 m/s 756 mmHg 68%
    08:00 +22°C° 0 mm 6 m/s 757 mmHg 63%
    09:00 +23°C° 0 mm 6 m/s 757 mmHg 59%
    10:00 +24°C° 0 mm 6 m/s 756 mmHg 55%
    11:00 +26°C° 0 mm 6 m/s 756 mmHg 50%
    12:00 +27°C° 0 mm 6 m/s 756 mmHg 49%
    13:00 +28°C° 0 mm 6 m/s 756 mmHg 47%
    14:00 +28°C° 0 mm 6 m/s 756 mmHg 45%
    15:00 +28°C° 0 mm 6 m/s 756 mmHg 47%
    16:00 +27°C° 0 mm 6 m/s 755 mmHg 49%
    17:00 +26°C° 0 mm 6 m/s 755 mmHg 51%
    18:00 +25°C° 0 mm 5 m/s 755 mmHg 53%
    19:00 +22°C° 0 mm 5 m/s 755 mmHg 55%
    20:00 +20°C° 0 mm 4 m/s 756 mmHg 58%
    21:00 +20°C° 0 mm 4 m/s 756 mmHg 61%
    22:00 +19°C° 0 mm 3 m/s 756 mmHg 65%
    23:00 +18°C° 0 mm 3 m/s 756 mmHg 69%

    Depois de amanhã, 6 Junho, Sábado

    Tempo Temperatura Precipitação Vento Pressão Humidade
    00:00 +18°C° 0 mm 3 m/s 756 mmHg 70%
    01:00 +17°C° 0 mm 3 m/s 756 mmHg 71%
    02:00 +17°C° 0 mm 3 m/s 755 mmHg 72%
    03:00 +17°C° 0 mm 3 m/s 755 mmHg 72%
    04:00 +17°C° 0 mm 2 m/s 755 mmHg 71%
    05:00 +17°C° 0 mm 2 m/s 755 mmHg 71%
    06:00 +20°C° 0 mm 1 m/s 755 mmHg 66%
    07:00 +22°C° 0 mm 1 m/s 755 mmHg 61%
    08:00 +24°C° 0 mm 1 m/s 755 mmHg 55%
    09:00 +26°C° 0 mm 1 m/s 755 mmHg 51%
    10:00 +27°C° 0 mm 1 m/s 755 mmHg 46%
    11:00 +28°C° 0 mm 2 m/s 755 mmHg 41%
    12:00 +28°C° 0.1 mm 2 m/s 755 mmHg 44%
    13:00 +28°C° 0.1 mm 2 m/s 755 mmHg 47%
    14:00 +28°C° 0.1 mm 2 m/s 754 mmHg 49%
    15:00 +27°C° 0.1 mm 2 m/s 754 mmHg 52%
    16:00 +26°C° 0.1 mm 2 m/s 754 mmHg 56%
    17:00 +26°C° 0.1 mm 2 m/s 754 mmHg 59%
    18:00 +24°C° 0.1 mm 2 m/s 754 mmHg 67%
    19:00 +20°C° 0.1 mm 2 m/s 754 mmHg 75%
    20:00 +18°C° 0.1 mm 2 m/s 754 mmHg 83%
    21:00 +18°C° 0 mm 2 m/s 754 mmHg 82%
    22:00 +18°C° 0 mm 2 m/s 754 mmHg 81%
    23:00 +19°C° 0 mm 1 m/s 754 mmHg 80%

    7 Junho, Domingo

    Tempo Temperatura Precipitação Vento Pressão Humidade
    00:00 +18°C° 0 mm 2 m/s 754 mmHg 77%
    01:00 +18°C° 0 mm 2 m/s 754 mmHg 75%
    02:00 +18°C° 0 mm 3 m/s 754 mmHg 72%
    03:00 +18°C° 0 mm 3 m/s 754 mmHg 75%
    04:00 +17°C° 0 mm 2 m/s 754 mmHg 78%
    05:00 +17°C° 0 mm 2 m/s 754 mmHg 81%
    06:00 +19°C° 0 mm 2 m/s 754 mmHg 78%
    07:00 +21°C° 0 mm 2 m/s 755 mmHg 75%
    08:00 +24°C° 0 mm 2 m/s 755 mmHg 72%
    09:00 +25°C° 0 mm 2 m/s 755 mmHg 67%
    10:00 +26°C° 0 mm 2 m/s 755 mmHg 62%
    11:00 +27°C° 0 mm 2 m/s 755 mmHg 58%
    12:00 +28°C° 0 mm 2 m/s 755 mmHg 56%
    13:00 +28°C° 0 mm 2 m/s 755 mmHg 55%
    14:00 +29°C° 0 mm 3 m/s 755 mmHg 54%
    15:00 +28°C° 0 mm 3 m/s 755 mmHg 55%
    16:00 +28°C° 0 mm 3 m/s 754 mmHg 56%
    17:00 +28°C° 0 mm 3 m/s 754 mmHg 57%
    18:00 +26°C° 0 mm 2 m/s 755 mmHg 65%
    19:00 +24°C° 0 mm 2 m/s 755 mmHg 73%
    20:00 +21°C° 0 mm 2 m/s 755 mmHg 81%
    21:00 +21°C° 0 mm 2 m/s 755 mmHg 81%
    22:00 +20°C° 0 mm 2 m/s 755 mmHg 81%
    23:00 +20°C° 0 mm 2 m/s 756 mmHg 80%

    8 Junho, Segunda-feira

    Tempo Temperatura Precipitação Vento Pressão Humidade
    00:00 +20°C° 0 mm 2 m/s 755 mmHg 80%
    01:00 +20°C° 0 mm 1 m/s 755 mmHg 81%
    02:00 +20°C° 0 mm 1 m/s 755 mmHg 81%
    03:00 +20°C° 0 mm 1 m/s 755 mmHg 80%
    04:00 +20°C° 0 mm 1 m/s 755 mmHg 80%
    05:00 +19°C° 0 mm 1 m/s 755 mmHg 80%
    06:00 +22°C° 0 mm 1 m/s 755 mmHg 74%
    07:00 +24°C° 0 mm 1 m/s 756 mmHg 69%
    08:00 +26°C° 0 mm 1 m/s 756 mmHg 64%
    09:00 +27°C° 0 mm 1 m/s 756 mmHg 60%
    10:00 +28°C° 0 mm 1 m/s 756 mmHg 56%
    11:00 +29°C° 0 mm 2 m/s 756 mmHg 52%
    12:00 +29°C° 0 mm 2 m/s 756 mmHg 53%
    13:00 +29°C° 0 mm 2 m/s 755 mmHg 53%
    14:00 +29°C° 0 mm 2 m/s 755 mmHg 53%
    15:00 +28°C° 0 mm 2 m/s 755 mmHg 56%
    16:00 +27°C° 0 mm 2 m/s 755 mmHg 58%
    17:00 +27°C° 0 mm 2 m/s 755 mmHg 61%
    18:00 +25°C° 0 mm 2 m/s 755 mmHg 67%
    19:00 +23°C° 0 mm 2 m/s 755 mmHg 72%
    20:00 +20°C° 0 mm 2 m/s 755 mmHg 78%
    21:00 +20°C° 0 mm 2 m/s 755 mmHg 78%
    22:00 +20°C° 0 mm 2 m/s 755 mmHg 77%
    23:00 +20°C° 0 mm 2 m/s 755 mmHg 77%

    9 Junho, Terça-feira

    Tempo Temperatura Precipitação Vento Pressão Humidade
    00:00 +20°C° 0 mm 2 m/s 755 mmHg 76%
    01:00 +19°C° 0 mm 2 m/s 755 mmHg 76%
    02:00 +20°C° 0 mm 1 m/s 755 mmHg 76%
    03:00 +20°C° 0 mm 1 m/s 755 mmHg 77%
    04:00 +20°C° 0 mm 1 m/s 755 mmHg 78%
    05:00 +20°C° 0 mm 1 m/s 755 mmHg 78%
    06:00 +22°C° 0 mm 1 m/s 755 mmHg 74%
    07:00 +24°C° 0 mm 2 m/s 755 mmHg 69%
    08:00 +25°C° 0 mm 2 m/s 756 mmHg 64%
    09:00 +26°C° 0 mm 2 m/s 756 mmHg 61%
    10:00 +27°C° 0 mm 2 m/s 756 mmHg 57%
    11:00 +28°C° 0 mm 2 m/s 756 mmHg 54%
    12:00 +29°C° 0 mm 2 m/s 756 mmHg 54%
    13:00 +29°C° 0 mm 3 m/s 756 mmHg 54%
    14:00 +29°C° 0 mm 3 m/s 755 mmHg 53%
    15:00 +28°C° 0 mm 3 m/s 755 mmHg 58%
    16:00 +27°C° 0 mm 3 m/s 755 mmHg 62%
    17:00 +26°C° 0 mm 3 m/s 755 mmHg 67%
    18:00 +24°C° 0 mm 2 m/s 755 mmHg 72%
    19:00 +23°C° 0 mm 2 m/s 755 mmHg 77%
    20:00 +20°C° 0 mm 2 m/s 755 mmHg 82%
    21:00 +20°C° 0 mm 2 m/s 755 mmHg 81%
    22:00 +19°C° 0 mm 2 m/s 755 mmHg 81%
    23:00 +20°C° 0 mm 1 m/s 755 mmHg 80%
    Mostrar mais